Wind_Speed
13 14 13 13 14 14 14 15 14 13 11 11 10 9 9 8 7 6 5 4 5 5 5 4 4 4 4 4 4 4 4 4 4 4 3 3 3 4 4 4 3 2 2 3 3 2 2 2 1
13 13 14 14 15 14 14 15 14 13 12 11 10 10 9 8 7 6 5 4 5 5 5 5 5 4 4 4 4 4 5 5 4 3 3 3 3 3 4 4 3 2 2 3 3 3 2 2 2
12 12 14 14 16 15 15 15 15 14 13 12 11 10 9 8 8 7 6 5 6 6 6 5 5 5 4 4 4 4 5 4 4 4 4 4 4 4 4 4 4 3 3 3 4 4 3 3 2
13 12 14 15 16 16 16 16 16 15 14 13 12 10 9 9 8 8 7 8 8 8 6 6 6 6 5 6 5 5 4 4 4 4 4 4 5 5 4 4 4 4 4 4 4 4 3 3 3
13 13 15 17 17 16 16 16 16 15 14 14 12 11 9 9 9 8 8 8 8 8 7 7 7 7 6 6 6 5 5 5 4 4 5 5 5 4 4 5 5 5 6 5 5 5 5 5 5
13 13 15 17 17 16 15 16 16 15 15 14 12 11 10 10 10 9 8 8 8 8 8 8 8 7 6 6 6 6 5 5 5 5 5 5 5 5 5 6 6 7 7 7 6 6 6 6 6
14 15 16 16 16 16 16 16 15 15 15 14 13 12 12 11 10 9 9 8 8 8 8 9 8 7 7 6 6 6 6 5 5 5 5 5 5 6 6 7 7 7 7 7 7 7 6 6 7
12 15 16 16 16 15 16 15 14 15 15 14 14 13 12 11 10 9 9 9 8 8 8 8 8 8 8 7 6 6 6 6 5 5 6 5 5 6 6 7 8 8 8 7 7 7 7 6 7
14 15 15 16 16 16 16 15 15 15 15 14 14 14 13 12 11 11 10 9 9 8 8 8 8 8 8 7 7 6 5 5 5 5 5 5 6 6 6 7 8 8 8 7 7 7 7 7 7
14 14 14 15 16 16 16 15 15 16 16 15 15 14 13 13 12 11 11 10 9 9 9 8 8 8 8 7 7 6 6 5 5 5 5 6 6 6 7 7 7 7 8 8 7 7 7 7 8
13 13 14 14 14 15 15 15 16 16 15 15 15 14 13 13 12 12 11 10 10 9 9 8 8 8 8 8 7 7 6 5 5 5 6 6 6 6 6 6 7 7 7 7 7 7 7 7 8
12 12 11 13 13 14 15 15 15 15 15 16 15 14 14 13 13 12 11 11 11 10 9 9 9 8 8 8 8 7 6 6 6 6 6 6 6 6 6 6 6 6 7 7 7 7 7 7 7
10 9 9 11 13 14 14 14 14 14 16 16 15 14 14 13 12 12 11 11 11 11 10 10 9 9 9 9 8 8 6 7 7 6 6 6 6 5 6 5 6 6 7 7 7 7 7 6 7
8 7 7 9 11 12 13 13 14 14 15 15 15 15 14 14 13 12 12 12 11 11 10 10 9 9 9 9 8 8 7 7 7 6 6 6 6 6 5 5 5 5 6 6 6 6 7 7 7
6 7 7 8 9 11 11 12 13 14 14 15 15 15 14 14 13 13 13 12 12 11 11 10 9 9 9 9 8 8 8 7 6 6 5 5 5 6 5 5 5 5 5 5 5 5 6 6 6
6 6 6 7 9 10 11 11 11 12 13 14 14 14 14 13 13 13 13 12 12 11 11 10 9 8 8 8 7 7 7 6 5 5 5 4 5 5 5 6 5 5 5 5 5 5 5 6 6
5 5 5 7 8 9 10 11 11 12 12 13 13 13 13 13 13 12 13 12 12 11 10 10 9 8 7 7 7 6 5 5 5 4 4 4 4 4 5 5 5 4 5 5 5 5 6 5 6
4 4 4 4 5 6 7 9 11 11 12 12 12 12 13 12 12 12 11 11 11 11 10 9 9 8 7 7 6 5 5 5 4 4 4 4 4 4 4 4 5 4 4 4 4 5 5 6 6
2 2 2 2 3 5 5 7 10 11 11 11 11 12 12 12 12 11 11 11 11 10 9 9 8 7 7 6 6 5 4 4 3 3 3 3 4 3 3 3 4 4 4 4 4 5 5 5 6
3 0 2 2 3 6 6 7 8 9 9 10 10 11 10 10 11 11 10 11 10 10 9 8 7 6 6 6 5 4 3 3 3 2 2 2 3 3 3 3 4 5 4 4 4 5 5 6 6
4 2 1 0 3 6 5 5 6 6 7 8 9 9 9 9 10 10 10 9 10 9 9 8 7 7 7 6 5 4 3 2 2 2 2 1 2 3 3 4 4 4 5 5 5 5 6 5 6
5 3 2 1 2 4 4 4 5 5 6 7 7 7 8 8 8 9 9 9 9 9 9 8 7 7 7 6 5 3 3 2 1 1 1 1 2 3 3 3 3 4 5 6 6 6 6 6 6
5 5 4 4 5 4 3 3 3 5 5 6 6 6 6 7 8 8 8 9 9 9 9 8 7 7 6 6 4 3 3 2 1 1 1 2 3 3 3 4 4 5 5 6 6 6 6 6 7
7 7 6 5 5 4 4 4 4 5 6 6 7 7 6 5 7 7 8 8 9 9 9 8 7 7 7 6 5 4 3 3 3 3 3 3 3 3 4 5 5 5 6 6 7 7 7 7 7
10 9 9 8 6 5 5 4 4 5 6 6 5 6 6 6 6 6 7 8 9 9 9 8 8 8 7 6 6 5 5 5 4 4 4 4 4 4 5 5 6 6 7 7 8 8 8 8 9
10 10 10 9 8 7 6 6 5 6 6 6 4 4 5 5 5 5 5 8 9 9 9 9 9 8 8 6 6 6 6 5 5 4 5 5 5 5 6 6 6 7 8 8 9 9 9 10 11
10 11 11 11 10 9 8 8 7 7 7 6 5 4 5 4 5 4 6 7 9 8 9 10 9 9 9 8 7 7 7 6 6 5 5 6 6 7 7 7 7 8 8 9 10 11 11 12 12
12 13 13 13 12 11 11 10 9 9 8 7 8 7 6 6 6 6 7 7 8 9 9 9 10 10 10 9 8 8 8 7 7 7 7 8 8 8 9 9 9 9 10 11 12 12 13 13 14
14 14 14 15 15 13 12 10 11 11 11 11 10 9 8 8 7 7 8 9 10 10 10 10 10 11 11 10 10 9 9 9 9 9 9 9 10 9 9 9 10 11 12 12 13 14 15 14 14
15 15 15 15 15 16 15 13 13 13 14 12 11 10 10 10 9 9 10 11 11 11 11 11 11 12 12 12 12 11 11 11 11 11 11 11 11 11 12 12 12 13 14 14 14 15 15 15 15
Wind_Direction
79 74 67 60 57 52 46 44 44 43 37 35 32 33 35 37 45 56 56 55 66 74 83 86 92 102 109 115 117 112 105 109 115 111 104 108 104 110 95 92 94 92 79 73 81 92 108 115 116
78 69 67 63 54 49 46 44 42 41 36 33 30 32 39 44 52 58 60 63 71 83 86 82 86 96 104 108 114 110 108 108 106 100 101 88 94 110 102 86 83 82 82 82 68 65 88 81 58
76 69 66 62 55 51 45 43 42 38 37 37 32 34 39 49 61 67 64 68 75 87 84 81 86 89 98 105 104 109 110 116 108 95 88 79 87 100 93 72 72 82 88 81 66 65 70 56 50
75 71 62 58 52 51 44 41 40 35 36 37 36 37 43 58 66 70 73 73 77 79 79 86 87 87 94 100 96 97 102 108 104 93 78 78 85 88 77 58 67 82 83 81 71 64 56 47 47
79 69 57 54 52 49 44 41 39 35 33 34 36 38 46 61 65 71 74 75 75 72 76 86 83 85 88 95 92 89 93 96 92 85 82 84 82 76 67 63 77 78 76 69 66 69 62 58 51
77 67 49 45 47 47 45 42 41 37 37 37 39 39 48 63 64 73 77 77 76 73 78 80 80 84 88 93 90 90 94 94 89 85 77 74 70 68 68 66 75 75 70 65 64 66 67 57 50
69 64 52 43 42 46 44 42 42 39 38 39 41 40 50 61 68 72 75 78 76 76 75 77 78 80 88 92 92 96 101 99 90 84 79 74 73 72 69 71 73 72 72 68 66 68 66 56 51
69 61 54 48 43 44 45 43 42 42 39 40 43 45 51 62 71 75 78 81 80 80 79 81 84 85 88 93 95 96 97 95 91 86 81 78 75 68 68 67 71 70 71 68 69 66 61 54 48
66 56 53 50 44 45 46 43 43 44 42 43 46 48 51 60 68 76 80 84 85 84 83 82 81 84 86 90 92 91 90 88 87 86 83 77 71 67 65 65 70 69 68 70 72 65 55 46 44
62 54 54 50 44 45 47 44 45 44 42 44 46 48 52 57 63 72 76 80 83 85 83 81 81 84 84 83 87 87 86 84 84 83 78 76 73 68 65 64 74 67 63 64 68 62 51 44 43
62 55 53 49 43 46 45 44 44 42 42 42 44 49 51 57 66 70 73 78 82 82 80 80 85 87 84 83 87 90 88 87 81 79 79 74 72 71 63 67 69 65 61 60 64 60 52 49 46
66 62 51 46 45 46 45 44 45 42 42 42 45 49 51 57 66 71 72 75 78 79 78 78 85 86 83 83 85 88 89 91 88 84 79 76 74 68 69 69 68 64 60 60 58 60 54 49 45
81 72 52 45 43 45 45 45 47 46 45 45 45 47 50 55 62 66 68 71 73 73 72 74 78 79 81 82 81 82 82 85 88 89 83 77 69 63 62 66 67 68 63 58 58 53 50 52 46
95 75 56 44 41 43 47 46 48 46 45 46 49 50 52 56 58 63 66 70 71 69 69 69 70 73 75 78 79 79 81 84 87 85 81 74 67 65 65 65 65 65 62 59 53 50 53 52 44
95 79 61 45 39 44 47 48 46 43 47 49 50 52 54 57 60 63 64 67 69 68 67 67 66 68 71 73 74 77 78 81 87 87 85 77 68 61 58 61 66 65 60 51 46 52 49 42 38
99 82 61 42 32 44 45 46 37 41 45 47 48 50 52 59 61 61 61 61 62 63 63 63 64 65 65 66 66 68 76 82 82 84 83 76 68 63 59 57 64 64 55 46 46 48 43 36 33
106 95 66 43 27 33 36 38 35 36 38 45 44 48 51 57 59 57 58 58 55 55 57 57 58 61 61 60 60 66 77 74 74 78 80 72 65 59 51 48 52 58 53 48 43 36 32 27 22
125 101 77 38 13 19 23 33 36 35 40 42 41 48 50 52 58 56 54 55 53 50 50 51 52 55 56 58 57 67 76 72 68 69 72 69 58 49 40 36 37 40 38 33 28 17 7 10 6
174 114 91 54 11 2 9 26 38 42 38 38 40 45 48 50 54 55 52 51 49 47 46 46 46 49 49 53 55 59 66 67 61 56 60 63 51 40 30 22 27 22 19 16 8 2 357 355 355
201 126 105 50 350 347 351 4 28 35 36 32 37 42 42 46 50 50 48 46 44 42 40 38 39 43 41 42 45 50 54 63 60 50 49 55 42 26 21 26 28 20 11 8 359 352 348 345 348
212 214 162 281 318 320 332 352 14 19 25 31 34 38 36 35 43 45 40 36 35 35 35 33 32 34 33 32 36 48 46 57 63 56 47 31 26 20 25 26 18 13 6 359 352 349 349 345 342
212 222 222 192 299 313 311 338 11 7 18 31 32 31 27 26 32 34 31 26 26 28 27 26 24 25 24 22 23 25 15 17 47 49 24 353 356 353 352 4 358 354 350 350 348 346 347 339 333
229 226 231 244 259 277 292 311 351 5 15 16 21 18 16 18 21 22 22 20 20 20 20 18 15 14 13 15 13 359 353 345 336 306 298 302 309 319 328 331 334 338 340 340 338 338 336 331 325
238 235 242 241 253 253 275 295 328 344 347 349 359 3 12 11 13 14 10 11 13 14 10 7 3 2 2 4 0 350 331 319 305 295 292 292 298 308 314 310 309 316 321 325 325 327 327 323 314
232 235 239 234 233 239 259 277 308 323 319 322 341 351 356 1 5 8 7 7 6 4 3 0 355 353 352 351 350 345 336 318 303 294 292 292 293 299 309 306 303 304 309 313 316 318 319 317 314
228 236 242 240 242 255 266 279 292 299 305 303 317 334 340 346 356 2 9 5 359 1 5 359 351 345 342 340 339 336 331 321 311 301 292 288 290 293 297 296 296 298 305 310 313 314 314 313 312
233 240 242 250 248 252 256 266 275 284 295 299 302 321 329 339 342 340 344 353 352 349 349 349 344 339 336 333 328 323 318 314 306 299 293 290 289 293 292 294 295 298 305 308 307 308 309 312 309
244 244 244 244 246 254 262 263 268 278 273 272 283 295 313 318 320 323 332 333 335 333 334 339 338 336 332 328 321 316 314 306 300 294 291 290 289 288 291 292 293 295 301 302 303 305 307 309 308
238 239 243 245 246 252 260 262 267 275 280 281 285 289 298 305 303 305 311 315 320 323 327 330 327 332 327 322 318 310 306 302 294 290 285 285 284 286 291 291 291 292 295 299 300 301 303 306 307
236 236 242 245 249 254 260 262 269 277 286 285 289 294 296 294 296 297 300 307 312 314 318 319 317 321 319 316 312 309 302 299 294 289 283 283 282 282 287 290 290 290 291 294 297 299 300 302 302
Height
5906 5905 5905 5905 5904 5903 5901 5900 5900 5899 5898 5897 5895 5895 5894 5893 5893 5894 5891 5889 5888 5888 5889 5889 5889 5889 5890 5890 5890 5891 5891 5891 5891 5891 5891 5891 5891 5891 5891 5890 5890 5890 5889 5888 5888 5887 5887 5886 5885
5908 5907 5907 5906 5905 5903 5903 5901 5901 5900 5899 5897 5896 5896 5895 5894 5893 5892 5890 5890 5889 5889 5890 5890 5890 5890 5891 5891 5891 5891 5892 5892 5892 5892 5891 5891 5891 5891 5891 5891 5890 5890 5889 5889 5888 5887 5887 5886 5885
5910 5909 5909 5907 5905 5905 5904 5903 5902 5901 5900 5899 5897 5896 5895 5894 5893 5892 5891 5890 5890 5890 5891 5891 5891 5891 5891 5892 5892 5892 5892 5893 5893 5893 5892 5892 5892 5892 5891 5891 5890 5890 5890 5889 5888 5888 5887 5886 5884
5911 5911 5911 5909 5907 5906 5905 5904 5903 5902 5901 5899 5898 5897 5895 5894 5893 5893 5892 5891 5891 5892 5892 5892 5892 5892 5893 5893 5893 5893 5893 5894 5893 5893 5893 5893 5893 5892 5892 5891 5891 5890 5890 5890 5889 5888 5887 5886 5884
5913 5913 5912 5910 5909 5908 5907 5905 5904 5903 5901 5900 5899 5897 5896 5895 5894 5893 5893 5892 5892 5893 5893 5893 5894 5894 5894 5894 5894 5894 5894 5895 5894 5894 5894 5894 5894 5893 5893 5892 5892 5891 5890 5890 5889 5888 5888 5886 5885
5915 5914 5913 5912 5911 5911 5909 5907 5906 5905 5903 5901 5899 5898 5896 5896 5895 5894 5894 5894 5894 5894 5894 5895 5895 5895 5895 5895 5895 5895 5895 5896 5896 5895 5895 5895 5895 5894 5894 5893 5892 5892 5891 5891 5890 5889 5888 5887 5886
5916 5915 5913 5913 5913 5912 5911 5909 5908 5907 5905 5903 5901 5899 5897 5897 5896 5896 5895 5895 5895 5895 5896 5895 5896 5896 5896 5896 5896 5896 5897 5897 5897 5897 5896 5896 5896 5895 5895 5894 5893 5893 5892 5892 5891 5890 5889 5888 5887
5917 5917 5915 5915 5915 5914 5913 5912 5910 5908 5907 5905 5902 5901 5899 5899 5898 5897 5897 5897 5897 5897 5897 5897 5896 5897 5897 5897 5897 5897 5897 5898 5897 5897 5897 5897 5897 5896 5896 5895 5894 5893 5893 5893 5892 5891 5890 5889 5888
5918 5919 5917 5917 5917 5916 5915 5914 5912 5910 5908 5906 5904 5903 5901 5900 5899 5898 5898 5898 5898 5898 5898 5898 5898 5898 5898 5898 5898 5898 5898 5898 5898 5898 5898 5898 5897 5897 5897 5896 5895 5894 5894 5893 5893 5892 5891 5890 5889
5920 5920 5919 5919 5919 5918 5917 5916 5914 5911 5910 5908 5906 5904 5903 5901 5900 5900 5900 5900 5900 5900 5900 5899 5899 5899 5899 5899 5899 5899 5899 5899 5899 5898 5898 5898 5898 5898 5898 5897 5896 5895 5895 5894 5894 5893 5892 5891 5890
5922 5921 5921 5921 5921 5920 5919 5917 5915 5914 5912 5910 5908 5906 5904 5903 5902 5902 5901 5901 5901 5901 5901 5901 5901 5901 5901 5901 5901 5901 5900 5900 5900 5899 5899 5899 5899 5899 5899 5898 5897 5896 5896 5895 5894 5894 5893 5892 5890
5923 5923 5923 5923 5922 5922 5921 5919 5917 5916 5914 5912 5910 5908 5907 5906 5905 5904 5903 5903 5903 5903 5903 5902 5902 5902 5902 5901 5902 5902 5901 5901 5901 5901 5900 5900 5900 5900 5899 5899 5898 5897 5896 5896 5895 5894 5893 5892 5891
5924 5924 5924 5924 5924 5923 5923 5921 5920 5918 5916 5914 5912 5910 5909 5908 5906 5906 5905 5904 5904 5904 5904 5904 5903 5903 5902 5902 5902 5902 5902 5902 5902 5902 5902 5902 5901 5901 5900 5900 5899 5898 5897 5896 5895 5895 5894 5893 5892
5927 5926 5925 5926 5925 5924 5924 5923 5922 5920 5918 5916 5915 5913 5911 5910 5908 5908 5907 5906 5906 5905 5905 5905 5905 5904 5904 5903 5903 5903 5903 5903 5903 5903 5903 5902 5902 5902 5901 5900 5900 5899 5898 5897 5896 5895 5895 5894 5893
5928 5928 5928 5927 5926 5925 5925 5925 5924 5922 5920 5918 5917 5915 5913 5912 5910 5909 5908 5908 5907 5907 5906 5906 5906 5905 5905 5904 5904 5904 5904 5904 5904 5904 5904 5903 5903 5902 5901 5901 5900 5899 5898 5898 5897 5896 5895 5894 5893
5929 5929 5929 5928 5927 5926 5928 5926 5925 5923 5922 5920 5918 5917 5915 5913 5912 5911 5910 5909 5909 5908 5908 5907 5906 5906 5905 5905 5905 5904 5904 5904 5904 5904 5904 5904 5903 5902 5902 5901 5900 5900 5899 5898 5897 5896 5895 5895 5893
5929 5929 5929 5929 5927 5927 5927 5926 5926 5924 5923 5921 5920 5919 5917 5915 5914 5913 5912 5911 5910 5909 5908 5908 5907 5906 5906 5905 5905 5905 5905 5904 5904 5904 5904 5904 5903 5903 5902 5901 5901 5900 5899 5898 5898 5897 5896 5895 5894
5929 5929 5929 5929 5928 5928 5928 5927 5926 5924 5923 5923 5922 5920 5919 5917 5915 5914 5913 5912 5911 5910 5909 5908 5908 5907 5906 5906 5905 5905 5905 5904 5904 5904 5904 5903 5903 5902 5902 5901 5901 5900 5899 5899 5898 5897 5896 5895 5894
5929 5929 5928 5929 5928 5928 5928 5927 5927 5925 5924 5924 5923 5921 5920 5919 5917 5916 5915 5913 5912 5911 5910 5909 5908 5907 5907 5906 5905 5904 5904 5904 5904 5904 5903 5903 5903 5902 5902 5901 5901 5900 5899 5898 5898 5897 5896 5895 5893
5928 5928 5928 5928 5928 5928 5927 5927 5927 5926 5925 5924 5924 5922 5921 5919 5918 5917 5916 5915 5914 5912 5911 5910 5909 5908 5907 5906 5905 5904 5904 5904 5903 5903 5903 5903 5903 5902 5902 5901 5900 5900 5899 5898 5897 5896 5895 5894 5893
5927 5927 5927 5928 5928 5928 5928 5928 5927 5926 5925 5925 5924 5923 5921 5920 5919 5918 5917 5915 5914 5913 5912 5911 5910 5908 5907 5906 5905 5904 5904 5903 5903 5903 5903 5903 5902 5902 5901 5900 5900 5899 5898 5897 5896 5895 5894 5893 5892
5926 5927 5927 5927 5928 5928 5928 5928 5927 5926 5925 5925 5923 5923 5922 5920 5919 5918 5917 5916 5915 5914 5912 5911 5910 5908 5907 5906 5905 5904 5903 5903 5902 5902 5902 5902 5901 5901 5900 5900 5899 5898 5897 5896 5895 5894 5893 5892 5891
5925 5926 5926 5926 5926 5927 5927 5927 5927 5926 5925 5924 5923 5922 5921 5920 5919 5919 5917 5916 5915 5914 5912 5911 5910 5908 5907 5905 5904 5903 5903 5902 5902 5901 5901 5901 5900 5900 5900 5899 5898 5897 5896 5895 5894 5892 5891 5890 5889
5924 5924 5925 5925 5925 5926 5926 5926 5926 5924 5924 5924 5923 5921 5921 5919 5919 5918 5917 5916 5915 5913 5912 5911 5909 5908 5907 5905 5904 5903 5902 5901 5901 5900 5900 5900 5899 5899 5898 5897 5897 5896 5894 5893 5892 5891 5889 5888 5887
5922 5923 5923 5923 5923 5923 5923 5924 5924 5923 5923 5923 5922 5921 5920 5919 5918 5918 5917 5916 5914 5913 5912 5910 5909 5907 5906 5904 5903 5902 5901 5900 5899 5899 5899 5898 5898 5897 5896 5896 5895 5894 5893 5891 5890 5889 5887 5886 5885
5920 5921 5922 5922 5922 5921 5921 5921 5923 5921 5921 5921 5920 5920 5919 5919 5918 5917 5916 5915 5914 5912 5911 5909 5907 5906 5905 5903 5902 5901 5900 5899 5898 5898 5897 5896 5896 5895 5894 5894 5893 5892 5891 5890 5888 5887 5885 5884 5882
5917 5918 5919 5920 5919 5919 5919 5920 5920 5919 5918 5918 5918 5918 5918 5917 5917 5916 5915 5914 5912 5911 5909 5908 5906 5905 5903 5902 5901 5900 5899 5898 5897 5896 5895 5894 5894 5893 5892 5891 5890 5889 5888 5887 5886 5884 5882 5881 5879
5915 5915 5916 5916 5917 5917 5917 5917 5917 5916 5915 5915 5915 5916 5915 5915 5915 5914 5913 5912 5911 5909 5907 5906 5905 5903 5901 5900 5899 5897 5897 5896 5895 5894 5893 5892 5891 5890 5889 5888 5888 5887 5886 5884 5883 5881 5879 5877 5875
5911 5912 5912 5913 5914 5914 5914 5916 5915 5914 5913 5913 5913 5912 5912 5913 5912 5912 5911 5910 5908 5907 5905 5904 5902 5901 5899 5898 5896 5895 5894 5893 5892 5891 5890 5889 5888 5887 5886 5885 5884 5883 5882 5881 5879 5878 5876 5874 5872
5907 5907 5909 5910 5911 5911 5911 5914 5911 5911 5911 5910 5910 5910 5910 5910 5910 5909 5908 5907 5905 5904 5902 5901 5899 5898 5896 5895 5894 5892 5891 5890 5889 5888 5887 5886 5885 5884 5883 5882 5881 5880 5879 5877 5876 5874 5872 5870 5868